Location: Unspecified
(0.0000°N, 0.0000°E)
Time: 01:11:52
(UTC+00:00)

SRMSAT - Pass Details

Date: 27 March 2019
Orbit: 849 x 866 km, 20.0° (Epoch: 17 April)

Event Time Altitude Azimuth Distance (km) Brightness Sun altitude
Exits shadow 04:11:02 11° 354° (N) 2,377 ? -28.6°
Drops below altitude 10° 04:12:40 10° 10° (N) 2,465 ? -28.2°
Sets 04:17:26 0° 44° (NE) 3,406 ? -27.0°
